Waarnemingen

Advertentie
Mijn weer
Saarbrücken-Ensheim, Duitsland (10708): temperatuur & dauwpunt: 14.07.2018 09:00:00 - 20.07.2018 09:00:00 (CEST)Saarbrücken-Ensheim, Duitsland (10708): temperatuur 5cm & temperatuur -5cm: 14.07.2018 09:00:00 - 20.07.2018 09:00:00 (CEST)Saarbrücken-Ensheim, Duitsland (10708): temperatuur -20cm & temperatuur -100cm: 14.07.2018 09:00:00 - 20.07.2018 09:00:00 (CEST)Saarbrücken-Ensheim, Duitsland (10708): windsnelheid & windstoten: 14.07.2018 09:00:00 - 20.07.2018 09:00:00 (CEST)Saarbrücken-Ensheim, Duitsland (10708): windrichting: 14.07.2018 09:00:00 - 20.07.2018 09:00:00 (CEST)Saarbrücken-Ensheim, Duitsland (10708): luchtdruk: 14.07.2018 09:00:00 - 20.07.2018 09:00:00 (CEST)Saarbrücken-Ensheim, Duitsland (10708): zicht: 14.07.2018 09:00:00 - 20.07.2018 09:00:00 (CEST)Saarbrücken-Ensheim, Duitsland (10708): Zonneschijnduur: 14.07.2018 09:00:00 - 20.07.2018 09:00:00 (CEST)Saarbrücken-Ensheim, Duitsland (10708): neerslag: 14.07.2018 09:00:00 - 20.07.2018 09:00:00 (CEST)
Datum & Tijd tt [°C] td [°C] tt 5cm [°C] tt -5cm [°C] tt -20cm [°C] tt -100cm [°C] ff [km/u] ff [kn] fx [km/u] fx [kn] dd ppp [hPa] vv [km] sd [min] rr [mm]
20.07.2018 09:00:00 - - - - - - - - - - - - - - -
20.07.2018 08:00:00 19,4 10,9 20,5 20,0 23,5 20,6 9 5 15 8 ONO 1013,9 50 51 0,0
20.07.2018 07:00:00 16,7 10,7 15,9 19,1 23,8 20,5 10 5 13 7 ONO 1014,3 50 11 0,0
20.07.2018 06:00:00 15,5 9,7 11,0 19,3 24,3 20,5 7 4 9 5 ONO 1014,7 50 0 0,0
20.07.2018 05:00:00 16,0 9,8 11,4 19,9 24,8 20,5 6 3 11 6 O 1014,9 50 0 0,0
20.07.2018 04:00:00 15,8 10,5 12,8 20,6 25,3 20,5 8 4 11 6 O 1015,2 10 0 0,0
20.07.2018 03:00:00 16,4 11,3 11,8 21,4 25,8 20,5 8 4 16 9 ONO 1015,2 10 0 0,0
20.07.2018 02:00:00 17,0 11,5 12,6 22,2 26,4 20,5 5 3 9 5 ONO 1015,7 10 0 0,0
20.07.2018 01:00:00 17,3 11,6 12,8 23,3 27,1 20,5 6 3 8 4 O 1015,8 50 0 0,0
20.07.2018 00:00:00 17,8 11,6 13,7 24,5 27,8 20,5 5 3 9 5 O 1015,8 50 0 0,0
19.07.2018 23:00:00 18,5 12,4 14,4 26,1 28,5 20,5 5 3 8 4 ONO 1015,8 10 0 0,0
19.07.2018 22:00:00 20,8 11,4 15,3 28,1 29,2 20,5 4 2 8 4 O 1015,3 10 0 0,0
19.07.2018 21:00:00 22,8 11,3 18,5 30,8 29,7 20,5 4 2 5 3 NNO 1014,8 10 35 0,0
19.07.2018 20:00:00 25,9 9,6 24,7 33,3 30,0 20,5 3 2 11 6 O 1014,5 50 60 0,0
19.07.2018 19:00:00 26,6 9,4 28,6 35,3 30,1 20,5 8 4 11 6 ONO 1014,6 60 35 0,0
19.07.2018 18:00:00 26,7 10,4 30,6 36,9 30,0 20,5 4 2 16 9 - 1014,9 10 44 0,0
19.07.2018 17:00:00 25,9 8,9 26,8 39,2 29,5 20,5 5 3 15 8 ONO 1015,4 10 42 0,0
19.07.2018 16:00:00 26,4 9,3 31,9 39,3 28,6 20,5 6 3 16 9 ZW 1015,7 60 51 0,0
19.07.2018 15:00:00 26,7 10,3 34,9 38,8 27,6 20,5 9 5 22 12 O 1016,0 10 56 0,0
19.07.2018 14:00:00 25,7 10,2 29,2 37,9 26,4 20,5 8 4 16 9 - 1016,4 10 59 0,0
19.07.2018 13:00:00 24,5 9,1 33,1 35,1 25,2 20,5 5 3 18 10 - 1017,0 10 60 0,0
19.07.2018 12:00:00 23,8 11,8 28,8 31,7 24,1 20,5 9 5 15 8 NNO 1017,3 10 60 0,0
19.07.2018 11:00:00 22,7 12,1 27,9 27,9 23,4 20,4 8 4 21 11 NO 1017,5 50 60 0,0
19.07.2018 10:00:00 21,0 11,8 24,8 24,4 22,9 20,4 12 7 18 10 NO 1017,7 50 60 0,0
19.07.2018 09:00:00 19,2 10,6 21,4 21,4 22,9 20,4 15 8 24 13 NO 1017,9 10 60 0,0
19.07.2018 08:00:00 18,2 10,3 19,5 19,4 23,1 20,4 16 9 24 13 NO 1017,8 10 60 0,0
19.07.2018 07:00:00 16,2 10,3 15,9 18,6 23,5 20,4 15 8 22 12 ONO 1017,9 10 33 0,0
19.07.2018 06:00:00 14,0 10,1 10,6 19,1 23,9 20,4 8 5 16 9 NO 1018,0 50 0 0,0
19.07.2018 05:00:00 15,7 9,8 14,0 19,7 24,4 20,4 13 7 21 11 ONO 1017,7 10 0 0,0
19.07.2018 04:00:00 17,1 10,3 15,6 20,3 24,9 20,4 13 7 18 10 NO 1017,9 10 0 0,0
19.07.2018 03:00:00 15,5 10,8 12,5 21,1 25,4 20,4 11 6 15 8 ONO 1018,1 10 0 0,0
19.07.2018 02:00:00 17,0 10,6 14,9 22,1 26,0 20,4 11 6 21 11 ONO 1017,8 10 0 0,0
19.07.2018 01:00:00 19,0 10,1 17,4 23,1 26,6 20,4 13 7 24 13 NO 1017,6 50 0 0,0
19.07.2018 00:00:00 20,6 10,0 19,1 24,1 27,2 20,4 13 7 21 11 NO 1017,1 50 0 0,0
18.07.2018 23:00:00 21,0 9,1 15,8 25,3 27,9 20,4 13 7 21 11 NNO 1016,5 10 0 0,0
18.07.2018 22:00:00 20,2 10,5 15,1 27,4 28,6 20,4 8 4 11 6 N 1016,5 10 15 0,0
18.07.2018 21:00:00 23,5 10,6 18,9 29,9 29,1 20,4 5 3 9 5 NNO 1015,8 10 60 0,0
18.07.2018 20:00:00 25,2 8,8 25,2 32,3 29,4 20,4 9 5 21 11 N 1015,5 10 60 0,0
18.07.2018 19:00:00 25,8 9,0 28,0 34,2 29,6 20,4 8 4 16 9 N 1015,5 60 44 0,0
18.07.2018 18:00:00 24,9 9,6 25,6 35,9 29,5 20,4 8 4 16 9 NNO 1015,9 10 6 0,0
18.07.2018 17:00:00 26,1 10,1 32,0 39,7 28,7 20,4 9 5 18 10 NNO 1016,2 10 57 0,0
18.07.2018 16:00:00 26,6 9,5 32,5 38,4 27,9 20,4 9 5 16 9 - 1016,3 10 39 0,0
18.07.2018 15:00:00 26,2 11,0 33,7 38,6 26,8 20,4 9 5 20 11 NO 1016,8 10 56 0,0
18.07.2018 14:00:00 24,1 11,4 29,3 36,7 25,6 20,4 5 3 21 11 - 1017,2 10 50 0,0
18.07.2018 13:00:00 23,9 10,5 30,0 33,9 24,5 20,4 5 3 21 11 - 1017,5 10 60 0,0
18.07.2018 12:00:00 23,5 12,1 29,7 29,8 23,6 20,4 9 5 18 10 ONO 1017,9 10 55 0,0
18.07.2018 11:00:00 22,2 11,1 25,6 26,3 23,0 20,3 11 6 18 10 NO 1018,3 10 43 0,0
18.07.2018 10:00:00 20,6 12,1 22,7 23,9 22,6 20,3 9 5 19 10 ONO 1018,5 40 52 0,0
18.07.2018 09:00:00 19,3 10,3 21,1 21,1 22,5 20,3 15 8 22 12 ONO 1018,4 10 60 0,0
18.07.2018 08:00:00 18,0 12,2 18,9 19,3 22,7 20,3 5 3 14 8 O 1018,3 40 57 0,0
18.07.2018 07:00:00 16,0 12,7 15,5 18,6 23,1 20,3 5 3 11 6 O 1018,5 10 25 0,0
18.07.2018 06:00:00 16,1 12,3 11,5 19,0 23,5 20,3 5 3 9 5 NNO 1018,3 10 0 0,0
18.07.2018 05:00:00 15,3 12,9 12,6 19,7 23,9 20,3 4 2 8 4 - 1018,2 10 0 0,0
18.07.2018 04:00:00 15,9 12,9 12,9 20,4 24,3 20,3 4 2 5 3 - 1018,2 10 0 0,0
18.07.2018 03:00:00 16,7 13,2 14,4 20,9 24,8 20,3 0 0 8 4 N 1017,8 50 0 0,0
18.07.2018 02:00:00 17,0 13,2 13,9 21,8 25,3 20,3 3 2 8 4 W 1017,6 50 0 0,0
18.07.2018 01:00:00 18,9 13,0 14,9 22,5 25,9 20,3 6 3 12 7 NNW 1017,4 50 0 0,0
18.07.2018 00:00:00 19,6 12,9 15,5 23,7 26,4 20,3 8 5 16 9 NW 1017,0 50 0 0,0
17.07.2018 23:00:00 20,3 12,9 18,0 24,8 27,0 20,3 9 5 16 8 NW 1016,6 10 0 0,0
17.07.2018 22:00:00 21,9 12,7 19,2 26,6 27,6 20,3 9 5 15 8 NW 1015,9 10 9 0,0
17.07.2018 21:00:00 23,9 12,8 22,5 28,5 28,1 20,3 9 5 15 8 NNW 1015,1 50 43 0,0
17.07.2018 20:00:00 23,7 13,3 23,0 30,9 28,4 20,3 12 7 25 13 NW 1014,7 50 18 0,0
17.07.2018 19:00:00 26,4 13,1 29,1 33,6 28,3 20,3 9 5 22 12 NW 1014,2 50 46 0,0
17.07.2018 18:00:00 26,5 12,0 29,3 35,3 27,9 20,3 11 6 20 11 NW 1014,1 10 56 0,0
17.07.2018 17:00:00 26,8 12,9 31,8 34,7 27,5 20,3 8 5 18 10 W 1014,3 50 60 0,0
17.07.2018 16:00:00 25,8 12,3 30,0 32,1 27,4 20,3 5 3 54 29 NNW 1014,7 10 27 0,5
17.07.2018 15:00:00 23,5 11,5 25,2 36,5 26,7 20,3 29 16 48 26 WNW 1014,9 40 31 0,0
17.07.2018 14:00:00 26,8 10,6 32,1 36,3 25,5 20,3 17 9 29 16 WNW 1014,3 40 59 0,0
17.07.2018 13:00:00 25,9 12,6 32,4 33,6 24,4 20,3 15 8 28 15 WNW 1014,7 10 55 0,0
17.07.2018 12:00:00 24,6 15,1 30,8 31,0 23,4 20,3 12 7 18 10 W 1014,9 40 60 0,0
17.07.2018 11:00:00 22,7 15,6 29,3 27,3 22,6 20,3 10 5 15 8 W 1014,9 40 60 0,0
17.07.2018 10:00:00 20,9 15,5 25,7 23,6 22,2 20,3 8 4 16 9 ZW 1014,8 10 60 0,0
17.07.2018 09:00:00 19,0 15,0 22,7 20,6 22,0 20,2 5 3 9 5 ZZW 1014,9 30 58 0,0
17.07.2018 08:00:00 18,9 14,5 20,3 18,8 22,2 20,2 4 2 8 4 - 1014,5 10 56 0,0
17.07.2018 07:00:00 16,2 13,1 14,6 17,8 22,5 20,2 4 2 8 4 - 1014,6 10 37 0,0
17.07.2018 06:00:00 14,1 12,4 11,2 18,0 22,9 20,2 0 0 5 3 N 1014,5 40 0 0,0
17.07.2018 05:00:00 14,5 12,4 11,3 18,5 23,4 20,2 6 3 8 4 O 1014,2 35 0 0,0
17.07.2018 04:00:00 14,6 12,4 11,6 19,1 23,9 20,2 2 1 8 4 Z 1014,0 10 0 0,0
17.07.2018 03:00:00 15,5 12,5 12,2 19,8 24,4 20,2 8 4 9 5 ONO 1014,0 10 0 0,0
17.07.2018 02:00:00 15,3 12,4 12,0 20,6 25,0 20,2 2 1 5 3 WZW 1014,0 40 0 0,0
17.07.2018 01:00:00 16,7 13,2 13,3 21,6 25,6 20,2 2 1 8 4 ZO 1013,8 10 0 0,0
17.07.2018 00:00:00 17,0 13,2 13,7 22,9 26,3 20,2 2 1 9 5 N 1013,5 10 0 0,0
16.07.2018 23:00:00 18,0 13,6 14,3 24,5 26,9 20,2 4 2 5 3 ZZW 1013,0 10 0 0,0
16.07.2018 22:00:00 20,0 13,9 16,0 26,4 27,5 20,2 4 2 5 3 NO 1012,3 10 23 0,0
16.07.2018 21:00:00 22,5 12,8 19,9 28,7 28,0 20,2 5 3 16 9 O 1011,5 50 26 0,0
16.07.2018 20:00:00 25,4 11,5 24,9 31,2 28,3 20,2 8 4 13 7 O 1010,9 10 60 0,0
16.07.2018 19:00:00 26,0 12,1 27,8 33,6 28,2 20,2 9 5 25 14 NNO 1010,6 10 47 0,0
16.07.2018 18:00:00 25,8 12,5 28,0 35,7 27,8 20,2 7 4 16 9 N 1010,7 50 44 0,0
16.07.2018 17:00:00 26,7 10,5 30,5 36,3 27,1 20,2 6 3 14 7 ZW 1010,7 50 60 0,0
16.07.2018 16:00:00 26,1 12,3 30,4 35,1 26,3 20,2 5 3 16 9 N 1011,2 50 53 0,0
16.07.2018 15:00:00 26,0 14,0 30,2 33,7 25,6 20,2 8 4 16 9 - 1011,5 10 48 0,0
16.07.2018 14:00:00 25,8 14,5 31,3 32,4 24,7 20,2 9 5 18 10 O 1012,1 10 60 0,0
16.07.2018 13:00:00 24,7 13,7 30,7 30,7 23,9 20,2 4 2 13 7 OZO 1012,7 50 60 0,0
16.07.2018 12:00:00 23,7 14,4 27,9 28,6 23,1 20,1 8 4 13 7 - 1013,0 10 60 0,0
16.07.2018 11:00:00 21,8 14,4 26,4 26,2 22,4 20,1 4 2 15 8 O 1013,5 35 60 0,0
16.07.2018 10:00:00 20,6 14,8 25,3 23,0 21,9 20,1 6 3 11 6 Z 1013,7 30 60 0,0
16.07.2018 09:00:00 18,6 14,4 21,2 20,1 21,8 20,1 2 1 4 2 ZZW 1014,2 30 59 0,0
16.07.2018 08:00:00 18,4 14,6 19,9 18,4 22,0 20,1 2 1 5 3 ZO 1014,4 30 60 0,0
16.07.2018 07:00:00 14,2 13,0 14,1 17,4 22,3 20,1 0 0 9 5 N 1015,1 20 36 0,0
16.07.2018 06:00:00 13,4 12,8 11,6 17,8 22,7 20,1 3 1 8 4 O 1015,0 20 0 0,0
16.07.2018 05:00:00 14,1 13,2 12,6 18,4 23,1 20,1 4 2 11 6 - 1015,0 10 0 0,0
16.07.2018 04:00:00 14,8 13,5 14,0 18,7 23,5 20,1 5 3 10 6 ONO 1015,1 10 0 0,0
16.07.2018 03:00:00 14,3 13,2 13,4 19,2 23,9 20,0 8 4 13 7 ONO 1015,3 10 0 0,0
16.07.2018 02:00:00 14,9 13,9 13,4 20,0 24,4 20,0 0 0 5 3 N 1015,3 30 0 0,0
16.07.2018 01:00:00 15,6 14,6 15,1 20,5 24,9 20,0 6 3 9 5 OZO 1015,6 30 0 0,0
16.07.2018 00:00:00 15,3 14,2 14,8 20,9 25,4 20,0 6 3 13 7 NW 1015,5 30 0 0,0
15.07.2018 23:00:00 15,9 14,1 15,5 21,8 26,1 20,0 10 5 15 8 O 1015,1 30 0 0,0
15.07.2018 22:00:00 16,4 14,4 15,7 22,9 26,8 20,0 7 4 13 7 NO 1014,9 35 2 0,0
15.07.2018 21:00:00 17,1 14,3 16,2 23,9 27,6 20,0 5 3 30 16 ZW 1014,9 10 1 0,0
15.07.2018 20:00:00 16,2 15,1 16,4 25,4 28,6 20,0 11 6 26 14 W 1015,6 10 0 0,1
15.07.2018 19:00:00 16,5 13,7 15,9 28,4 29,4 20,0 6 3 26 14 ZO 1015,5 30 0 4,8
15.07.2018 18:00:00 19,1 12,2 19,7 33,1 29,8 20,0 15 8 43 23 O 1014,1 40 21 0,0
15.07.2018 17:00:00 19,5 14,0 22,2 35,7 29,8 20,0 29 16 48 26 ONO 1014,6 40 26 0,2
15.07.2018 16:00:00 27,4 11,0 30,4 40,7 29,0 20,0 8 4 13 7 WZW 1012,6 40 54 0,0
15.07.2018 15:00:00 27,7 11,4 34,5 40,0 27,9 20,0 5 3 14 8 ZZO 1013,2 40 60 0,0
15.07.2018 14:00:00 26,5 11,2 32,3 38,1 26,8 19,9 5 3 16 8 - 1014,1 10 60 0,0
15.07.2018 13:00:00 25,4 11,8 30,6 35,6 25,7 19,9 9 5 18 10 NO 1014,8 10 60 0,0
15.07.2018 12:00:00 25,3 13,0 31,4 32,5 24,7 19,9 5 3 15 8 NO 1015,1 10 60 0,0
15.07.2018 11:00:00 23,4 14,1 27,9 28,7 24,0 19,9 9 5 16 9 NO 1015,6 40 60 0,0
15.07.2018 10:00:00 21,2 13,2 24,6 25,5 23,6 19,9 10 5 21 11 NNO 1016,0 40 60 0,0
15.07.2018 09:00:00 20,2 13,3 22,2 22,9 23,5 19,9 9 5 21 11 ONO 1016,3 35 60 0,0
15.07.2018 08:00:00 19,8 13,1 21,6 20,8 23,7 19,9 10 5 21 11 NNO 1016,2 35 60 0,0
15.07.2018 07:00:00 16,5 12,9 14,9 20,0 24,1 19,9 7 4 13 7 NNO 1016,1 40 15 0,0
15.07.2018 06:00:00 16,6 12,3 14,1 20,6 24,5 19,9 5 3 29 16 NO 1016,3 10 0 0,0
15.07.2018 05:00:00 17,3 12,0 16,2 21,4 24,9 19,9 8 4 13 7 NO 1016,3 10 0 0,0
15.07.2018 04:00:00 18,9 12,0 14,7 21,9 25,3 19,8 5 3 19 10 - 1016,6 10 0 0,0
15.07.2018 03:00:00 18,5 12,3 17,0 22,6 25,8 19,8 11 6 19 10 ONO 1016,5 35 0 0,0
15.07.2018 02:00:00 19,3 12,2 17,8 23,4 26,3 19,8 13 7 20 11 NO 1016,7 10 0 0,0
15.07.2018 01:00:00 20,7 12,1 19,5 24,2 26,9 19,8 14 8 21 11 NO 1016,7 35 0 0,0
15.07.2018 00:00:00 20,9 12,1 19,7 25,3 27,6 19,8 15 8 24 13 NO 1016,5 10 0 0,0
14.07.2018 23:00:00 22,8 12,2 21,2 26,5 28,3 19,8 13 7 21 11 NNO 1016,3 10 0 0,0
14.07.2018 22:00:00 21,1 12,9 16,7 28,6 28,9 19,8 6 4 9 5 NO 1016,1 40 5 0,0
14.07.2018 21:00:00 24,5 13,3 20,6 31,2 29,4 19,8 5 3 8 4 NNO 1015,3 10 60 0,0
14.07.2018 20:00:00 26,4 12,6 25,5 33,6 29,7 19,8 5 3 11 6 ONO 1015,1 10 52 0,0
14.07.2018 19:00:00 27,2 11,1 29,0 36,3 29,7 19,8 8 4 16 9 NO 1015,3 50 53 0,0
14.07.2018 18:00:00 27,0 13,2 31,4 38,5 29,3 19,8 9 5 20 11 N 1015,7 10 50 0,0
14.07.2018 17:00:00 27,8 11,2 33,7 39,4 28,6 19,8 7 4 13 7 NW 1015,9 50 60 0,0
14.07.2018 16:00:00 27,3 11,2 33,4 38,3 27,8 19,8 6 3 13 7 WZW 1016,3 50 46 0,0
14.07.2018 15:00:00 26,7 11,6 33,6 37,3 26,9 19,8 4 2 18 10 - 1016,9 10 38 0,0
14.07.2018 14:00:00 27,1 11,6 32,9 37,3 25,8 19,8 9 5 21 11 - 1017,3 10 60 0,0
14.07.2018 13:00:00 25,7 12,2 31,0 34,6 24,6 19,8 9 5 18 10 ONO 1017,8 50 60 0,0
14.07.2018 12:00:00 24,2 11,5 28,3 31,3 23,6 19,8 10 5 16 9 NO 1018,5 50 60 0,0
14.07.2018 11:00:00 23,6 13,3 27,4 27,8 22,9 19,8 10 5 14 8 NO 1018,7 50 60 0,0
14.07.2018 10:00:00 21,2 12,8 24,3 24,2 22,5 19,8 9 5 22 12 ONO 1019,3 10 60 0,0
14.07.2018 09:00:00 19,5 12,1 21,2 21,5 22,4 19,7 16 9 24 13 ONO 1019,3 50 60 0,0

tt = temperatuur
td = dauwpunt
tt 5cm = temperatuur 5cm
tt -5cm = temperatuur -5cm
tt -20cm = temperatuur -20cm
tt -100cm = temperatuur -100cm
ff = windsnelheid
fx = windstoten
dd = windrichting
ppp = luchtdruk
vv = zicht
sd = Zonneschijnduur
rr = neerslag

Weerstations in de omgeving